This demonstration page uses our WeatherBlox Daily Observations layout. Learn more.

Hourly Observations for December 24, 2018

Temp ( °F °C ) Dew Point ( °F °C ) Humidity (%) Winds ( mph kmh ) Pressure ( in mb ) Visibility ( mi km ) Precip ( " mm )
12:15 am 00:15 Cloudy 39 4 39 4 100 100 N 5 7 30.09 1019 10 16.09344 0 0
12:30 am 00:30 Cloudy with Light Drizzle 39 4 37 3 93 93 N 3 6 30.09 1019 10 16.09344 0 0
12:55 am 00:55 Cloudy 41 5 37 3 87 87 N 3 6 30.06 1018 10 16.09344 0 0
1:15 am 01:15 Cloudy 39 4 37 3 93 93 NNW 5 7 30.09 1019 10 16.09344 0 0
1:35 am 01:35 Cloudy 39 4 37 3 93 93 NW 5 7 30.09 1019 10 16.09344 0 0
1:55 am 01:55 Cloudy with Light Drizzle 39 4 37 3 93 93 NW 6 9 30.09 1019 10 16.09344 0 0
2:15 am 02:15 Cloudy 39 4 37 3 93 93 NW 5 7 30.09 1019 10 16.09344 0 0
2:35 am 02:35 Cloudy 39 4 37 3 93 93 NW 5 7 30.09 1019 10 16.09344 0 0
2:55 am 02:55 Mostly Cloudy 37 3 37 3 100 100 Calm 30.12 1020 10 16.09344 0 0
3:15 am 03:15 Mostly Cloudy 37 3 37 3 100 100 Calm 30.09 1019 10 16.09344 0 0
3:35 am 03:35 Partly Cloudy 36 2 36 2 100 100 Calm 30.09 1019 10 16.09344 0 0
3:55 am 03:55 Mostly Cloudy 36 2 36 2 100 100 Calm 30.12 1020 10 16.09344 0 0
4:15 am 04:15 Cloudy 36 2 36 2 100 100 WNW 7 11 30.12 1020 10 16.09344 0 0
4:35 am 04:35 Mostly Cloudy 37 3 36 2 93 93 NW 10 17 30.12 1020 10 16.09344 0 0
4:55 am 04:55 Partly Cloudy 39 4 36 2 87 87 WNW 9 15 30.12 1020 10 16.09344 0 0
5:15 am 05:15 Partly Cloudy 39 4 36 2 87 87 NNW 9 15 30.12 1020 10 16.09344 0 0
5:35 am 05:35 Partly Cloudy 39 4 36 2 87 87 NW 8 13 30.12 1020 10 16.09344 0 0
5:55 am 05:55 Mostly Cloudy 39 4 36 2 87 87 NW 7 11 30.15 1021 10 16.09344 0 0
6:15 am 06:15 Mostly Cloudy 39 4 36 2 87 87 WNW 12 19 30.15 1021 10 16.09344 0 0
6:35 am 06:35 Partly Cloudy 41 5 36 2 81 81 NW 14 22 30.15 1021 10 16.09344 0 0
6:55 am 06:55 Clear 41 5 34 1 76 76 WNW 16 26 30.15 1021 10 16.09344 0 0
7:15 am 07:15 Clear 41 5 34 1 76 76 NW 24 39 30.18 1022 10 16.09344 0 0
7:35 am 07:35 Mostly Cloudy 41 5 32 0 70 70 NW 17 28 30.18 1022 10 16.09344 0 0
7:55 am 07:55 Cloudy 41 5 32 0 70 70 NW 18 30 30.21 1023 10 16.09344 0 0
8:15 am 08:15 Cloudy 41 5 32 0 70 70 NW 15 24 30.21 1023 10 16.09344 0 0
8:35 am 08:35 Cloudy 41 5 32 0 70 70 NW 10 17 30.24 1024 10 16.09344 0 0
8:55 am 08:55 Cloudy 41 5 32 0 70 70 NW 12 19 30.24 1024 10 16.09344 0 0
9:15 am 09:15 Cloudy 41 5 32 0 70 70 WNW 15 24 30.24 1024 10 16.09344 0 0
9:35 am 09:35 Cloudy 41 5 32 0 70 70 WNW 15 24 30.24 1024 10 16.09344 0 0
9:55 am 09:55 Cloudy 41 5 32 0 70 70 WNW 16 26 30.24 1024 10 16.09344 0 0
10:15 am 10:15 Cloudy 41 5 32 0 70 70 WNW 17 28 30.24 1024 10 16.09344 0 0
10:35 am 10:35 Cloudy 41 5 30 -1 66 66 WNW 17 28 30.24 1024 10 16.09344 0 0
10:55 am 10:55 Cloudy 43 6 30 -1 61 61 NW 18 30 30.24 1024 10 16.09344 0 0
11:15 am 11:15 Mostly Cloudy 43 6 30 -1 61 61 NW 21 33 30.24 1024 10 16.09344 0 0
11:35 am 11:35 Partly Cloudy 43 6 28 -2 57 57 WNW 15 24 30.21 1023 10 16.09344 0 0
11:55 am 11:55 Sunny 45 7 30 -1 57 57 NW 15 24 30.21 1023 10 16.09344 0 0
12:15 pm 12:15 Partly Cloudy 45 7 28 -2 53 53 WNW 12 19 30.21 1023 10 16.09344 0 0
12:35 pm 12:35 Mostly Cloudy 45 7 28 -2 53 53 WNW 10 17 30.21 1023 10 16.09344 0 0
12:55 pm 12:55 Mostly Cloudy 45 7 28 -2 53 53 WNW 14 22 30.18 1022 10 16.09344 0 0
1:15 pm 13:15 Mostly Cloudy 45 7 28 -2 53 53 NW 13 20 30.18 1022 10 16.09344 0 0
1:35 pm 13:35 Mostly Cloudy 45 7 28 -2 53 53 W 20 31 30.21 1023 10 16.09344 0 0
1:55 pm 13:55 Partly Cloudy 43 6 28 -2 57 57 WNW 9 15 30.18 1022 10 16.09344 0 0
2:15 pm 14:15 Mostly Cloudy 43 6 27 -3 53 53 W 15 24 30.18 1022 10 16.09344 0 0
2:35 pm 14:35 Mostly Cloudy 45 7 27 -3 49 49 WNW 14 22 30.18 1022 10 16.09344 0 0
2:55 pm 14:55 Partly Cloudy 45 7 27 -3 49 49 WNW 18 30 30.18 1022 10 16.09344 0 0
3:15 pm 15:15 Partly Cloudy 45 7 27 -3 49 49 WNW 16 26 30.18 1022 10 16.09344 0 0
3:35 pm 15:35 Sunny 45 7 27 -3 49 49 NW 13 20 30.21 1023 10 16.09344 0 0
3:55 pm 15:55 Sunny 45 7 27 -3 49 49 NW 13 20 30.21 1023 10 16.09344 0 0
4:15 pm 16:15 Sunny 43 6 28 -2 57 57 NW 10 17 30.21 1023 10 16.09344 0 0
4:35 pm 16:35 Mostly Cloudy 43 6 27 -3 53 53 W 8 13 30.21 1023 10 16.09344 0 0
4:55 pm 16:55 Cloudy 43 6 28 -2 57 57 W 7 11 30.21 1023 10 16.09344 0 0
5:15 pm 17:15 Cloudy 43 6 28 -2 57 57 W 5 7 30.21 1023 10 16.09344 0 0
5:35 pm 17:35 Cloudy 43 6 28 -2 57 57 Calm 30.24 1024 10 16.09344 0 0
5:55 pm 17:55 Cloudy 43 6 28 -2 57 57 W 3 6 30.24 1024 10 16.09344 0 0
6:15 pm 18:15 Cloudy 41 5 28 -2 61 61 W 3 6 30.24 1024 10 16.09344 0 0
6:35 pm 18:35 Cloudy 43 6 28 -2 57 57 WNW 5 7 30.24 1024 10 16.09344 0 0
6:55 pm 18:55 Cloudy 43 6 28 -2 57 57 W 5 7 30.24 1024 10 16.09344 0 0
7:15 pm 19:15 Cloudy 43 6 28 -2 57 57 WNW 8 13 30.24 1024 10 16.09344 0 0
7:35 pm 19:35 Cloudy 43 6 28 -2 57 57 NW 9 15 30.24 1024 10 16.09344 0 0
7:55 pm 19:55 Cloudy 43 6 30 -1 61 61 WNW 3 6 30.24 1024 10 16.09344 0 0
8:15 pm 20:15 Cloudy 43 6 28 -2 57 57 NNW 6 9 30.24 1024 10 16.09344 0 0
8:35 pm 20:35 Cloudy 43 6 28 -2 57 57 NNW 10 17 30.24 1024 10 16.09344 0 0
8:55 pm 20:55 Cloudy 43 6 28 -2 57 57 N 6 9 30.24 1024 10 16.09344 0 0
9:15 pm 21:15 Cloudy 43 6 28 -2 57 57 N 8 13 30.27 1025 10 16.09344 0 0
9:35 pm 21:35 Cloudy 41 5 28 -2 61 61 N 8 13 30.27 1025 10 16.09344 0 0
9:55 pm 21:55 Cloudy 41 5 28 -2 61 61 NNW 9 15 30.27 1025 10 16.09344 0 0
10:15 pm 22:15 Cloudy 41 5 28 -2 61 61 N 6 9 30.3 1026 10 16.09344 0 0
10:35 pm 22:35 Cloudy 39 4 28 -2 65 65 Calm 30.3 1026 10 16.09344 0 0
10:55 pm 22:55 Cloudy 39 4 28 -2 65 65 Calm 30.3 1026 10 16.09344 0 0
11:15 pm 23:15 Cloudy 37 3 28 -2 70 70 N 3 6 30.3 1026 10 16.09344 0 0
11:35 pm 23:35 Cloudy 37 3 28 -2 70 70 N 5 7 30.3 1026 10 16.09344 0 0
11:55 pm 23:55 Partly Cloudy 37 3 27 -3 65 65 N 3 6 30.3 1026 10 16.09344 0 0

Powered by AerisWeather